Starlink 30825

operational
NORAD ID: 58384 Int'l Des: 2023-178 Owner: SPXS Country: US Constellation: starlink
LEOCIRCULAR

Über Starlink 30825

Beschreibung wird geladen...

Live-Position

3D-Globus wird geladen...

Nächste Überflüge

Höhenverlauf

Altitude vs Time

uPlot chart will show altitude changes over time

Zweizeiliger Elementsatz

1 58384U 23178L 25304.11183188 .00000187 00000-0 18460-4 0 9993
2 58384 53.1605 242.8390 0001321 71.7454 288.3691 15.30175637110055
Epoch: 31. Okt. 2025 • Age: 41 hours

Aktueller Status

Höhe 489.4 km
Geschwindigkeit 7.62 km/s
Subsatellitenpunkt -40.90°S, 134.57°W
Startdatum 20. Nov. 2023
Alter 1.9 years
Typ internet

Technische Details

Klassifizierung Payload
Masse 730.00 kg
Trockenmasse 700.00 kg
Gesamtmasse 730.00 kg
Länge 0.30 m
Durchmesser 4.10 m
Spannweite 29.00 m
Form Box + pan
Hersteller SPXS
Bus-Typ Starlink V2M
Phasenstatus In Orbit
Besitzer/Staat SPXS/US

Große Konstellationen

Loading constellations...